Regional Weather Roundup
Issued by NWS Wilmington, NC

Home | Current Version | Previous Version | Text Only | Print | Product List | Glossary On
Versions: 1 2 3 4 5 6 7 8 9 10 11 12 13 14 15 16 17 18 19 20 21 22 23 24 25 26 27
000
ASUS42 KILM 291013
RWRILM
RWRILM
REGIONAL HOURLY WEATHER ROUNDUP
NATIONAL WEATHER SERVICE WILMINGTON NC
600 AM EDT THU JUN 29 2017

NOTE: "FAIR" INDICATES FEW OR NO CLOUDS BELOW 12,000 FEET WITH NO
SIGNIFICANT WEATHER AND/OR OBSTRUCTIONS TO VISIBILITY.

...............WFO WILMINGTON COUNTY WARNING AREA...............

......COASTAL NC AND SC COUNTIES......

CITY           SKY/WX    TMP DP  RH WIND       PRES   REMARKS
WILMINGTON     CLEAR     62  60  93 CALM      30.19R
N MYRTLE BEACH CLEAR     63  61  93 NE3       30.18R
MYRTLE BEACH   NOT AVBL

......INLAND NC AND SC COUNTIES.......

CITY           SKY/WX    TMP DP  RH WIND       PRES   REMARKS
LUMBERTON      CLEAR     60  60 100 CALM      30.20R
ELIZABETHTOWN  NOT AVBL
WHITEVILLE     CLEAR     60  58  95 CALM      30.19R
FLORENCE       CLEAR     63  61  93 CALM      30.20R
DARLINGTON     CLEAR     64  62  93 CALM      30.20R
KINGSTREE      FAIR      59  57  94 CALM      30.19R
HARTSVILLE     FAIR      59  57  94 CALM      30.19R
BENNETTSVILLE  FAIR      63  63 100 CALM      30.19S
CONWAY         FAIR      59  57  94 CALM      30.19R FOG
GEORGETOWN     FAIR      64  63  94 CALM      30.19R
MARION         FAIR      59  59 100 CALM      30.20R

....................REST OF NORTH CAROLINA......................

.........EASTERN NC.........

CITY           SKY/WX    TMP DP  RH WIND       PRES   REMARKS
CAPE HATTERAS  NOT AVBL
JACKSONVILLE   PTCLDY    57  56  96 CALM      30.21R FOG
MOREHEAD CITY  PTCLDY    70  67  90 NE5       30.20R
KENANSVILLE    CLOUDY    57  55  94 CALM      30.21S
NEW BERN       PTCLDY    62  61  96 CALM      30.22R
ELIZABETH CITY PTCLDY    60  60 100 S3        30.21R

.........CENTRAL NC.........

CITY           SKY/WX    TMP DP  RH WIND       PRES   REMARKS
RALEIGH DURHAM MOCLDY    60  57  89 CALM      30.21R
ROCKY MOUNT    CLOUDY    59  59 100 CALM      30.21R
ROANOKE RAPIDS NOT AVBL
FAYETTEVILLE   CLEAR     64  59  83 CALM      30.20R
HOFFMAN        CLEAR     59  58  98 CALM      30.20R

.........WESTERN NC.........

CITY           SKY/WX    TMP DP  RH WIND       PRES   REMARKS
CHARLOTTE      PTCLDY    64  58  80 CALM      30.22R
GREENSBORO     CLOUDY    63  60  90 SW5       30.20R
HICKORY        NOT AVBL
BOONE          NOT AVBL
ASHEVILLE      NOT AVBL

.....................REST OF SOUTH CAROLINA.....................

.........EASTERN SC.........

CITY           SKY/WX    TMP DP  RH WIND       PRES   REMARKS
CHARLESTON     PTCLDY    70  66  87 NE5       30.16R
BEAUFORT MCAS  CLOUDY    75  73  93 NE7       30.14R
HILTON HEAD    NOT AVBL

.........CENTRAL SC.........

CITY           SKY/WX    TMP DP  RH WIND       PRES   REMARKS
COLUMBIA       PTCLDY    66  60  81 CALM      30.18R
ORANGEBURG     CLEAR     65  62  90 NE3       30.18R
SUMTER SHAW    CLEAR     62  58  89 NE5       30.17R

.........WESTERN SC.........

CITY           SKY/WX    TMP DP  RH WIND       PRES   REMARKS
GREENVILLE     NOT AVBL
ROCK HILL      CLEAR     60  58  92 CALM      30.21R
ANDERSON       MOCLDY    67  63  87 CALM      30.20R
CLEMSON        NOT AVBL
GREENWOOD      CLEAR     64  61  90 N3        30.21R


...................COASTAL AND OFFSHORE REPORTS..................

................LOCAL PIERS AND NC RESERVE................


STATION/POSITION TIME  SKY/WX   TEMP    WIND        PRES    VSBY
                                AIR SEA DIR/SP/G
                 (UTC)          (F)     (DEG/KT/KT) (MB)    (MI)
JOHNY MRCER PIER 0948            73 81  340/  5/  5 1021.4R
NC RESRV MASNBRO 0845            68     320/  2     1023.0
OCEAN CREST PIER NOT AVBL
SPRINGMAID  PIER 0948                               1021.3R


................COASTAL AND OFFSHORE BUOYS................


STATION/POSITION TIME  SKY/WX   TEMP    WIND        PRES    VSBY
                                AIR SEA DIR/SP/G
                 (UTC)          (F)     (DEG/KT/KT) (MB)    (MI)
DIMNDSHOAL 41025 0950            79 83  110/  4/  6 1022.9R
WVE H/P(F/S)=  2/ 7 SWL H/P/D(F/S/D)=  2/100/ 7

CAPE LOOKOUT     1000            75      10/  7/  9 1022.4R
ONSLOW BAY 41036 NOT AVBL
ONSLOW BAY 41064 0908            78 80   40/  6/  8 1022.0R
ONSLOW BAY 41159 0943               80                N/A
WVE H/P(F/S)=  2/ 6

MASNBO INL 41110 0959               79                N/A
WVE H/P(F/S)=  2/ 8

WILM HARBR 41108 NOT AVBL
27SE WRITB 41037 0908            79 80   70/  8/ 12 1021.7R
FRYING PAN 41013 0950            78 79   30/ 10/ 12 1021.6R
WVE H/P(F/S)=  2/ 6 SWL H/P/D(F/S/D)=  2/120/ 6

SUNST NRSH 41024 NOT AVBL
CAPRS NRSH 41029 0908            85 82   90/ 10/ 16 1020.6R
EDISTO     41004 0950            80 81  100/ 10/ 12 1020.5R
WVE H/P(F/S)=  3/ 5 SWL H/P/D(F/S/D)=  3/ 90/ 5



..........OFFSHORE BUOYS BEYOND 100 NM OFFSHORE...........
.....IN A TRIANGLE---HAT TO BERMUDA TO BAHAMAS TO HAT.....


STATION/POSITION TIME  SKY/WX   TEMP    WIND        PRES    VSBY
                                AIR SEA DIR/SP/G
                 (UTC)          (F)     (DEG/KT/KT) (MB)    (MI)
150E HAT   41001 0950            77 78   60/  4/  8 1023.4R
WVE H/P(F/S)=  2/ 6 SWL H/P/D(F/S/D)=  2/120/ 6

W BERMUDA  41048 0950            78 80   50/  8/ 10 1021.1R
WVE H/P(F/S)=  2/ 8 SWL H/P/D(F/S/D)=  2/150/ 8

ATLANTIC S 41049 0950            81 83   70/  6/  8 1020.7R
WVE H/P(F/S)=  3/ 8 SWL H/P/D(F/S/D)=  3/120/ 8

E BAHAMAS  41046 0950            81 83  100/ 12/ 14 1018.5R
WVE H/P(F/S)=  4/ 8 SWL H/P/D(F/S/D)=  3/120/ 8

NE BAHAMAS 41047 0950            82 83  170/  6/  8 1020.3R
WVE H/P(F/S)=  2/ 8 SWL H/P/D(F/S/D)=  2/130/ 8

120E CANVRL41010 0950            81 83   90/  8/ 10 1018.5R
WVE H/P(F/S)=  3/ 7 SWL H/P/D(F/S/D)=  2/130/ 7


END




USA.gov is the U.S. government's official web portal to all federal, state and local government web resources and services.